Volver al catálogo

STARLINK-5899

ActivoComunicacionesVLEO
NORAD 55949·PAYLOAD·🇺🇸 United States

Lanzado Mar 17, 2023 desde Vandenberg Space Force Base

Loading…

Próximos Pases (próximas 24 horas)

TLE

ActualizadoSource: CelesTrak SupGP

Época: Sep 15, 2026, 02:32 UTC

1 55949C 23037AM  26258.10604167  .00040494  00000+0  33924-2 0  2586
2 55949  70.0004 147.0351 0002951 273.2463  22.7314 14.98323413    18

Sigue STARLINK-5899 en tiempo real con AllMySat

Download on the App Store